TimeCDT,TemperatureF,Dew PointF,Humidity,Sea Level PressureIn,VisibilityMPH,Wind Direction,Wind SpeedMPH,Gust SpeedMPH,PrecipitationIn,Events,Conditions,WindDirDegrees,DateUTC
12:53 AM,59.0,55.0,87,29.93,10.0,NNW,9.2,-,0.01,Rain,Light Rain,340,2013-05-09 05:53:00
1:53 AM,57.0,57.0,100,29.93,10.0,WSW,6.9,-,0.04,Rain,Light Rain,250,2013-05-09 06:53:00
2:53 AM,61.0,57.9,90,29.84,10.0,South,23.0,28.8,0.06,Rain,Light Rain,180,2013-05-09 07:53:00
3:53 AM,62.1,53.1,72,29.78,10.0,SE,19.6,38.0,0.02,Rain,Light Rain,130,2013-05-09 08:53:00
4:06 AM,62.6,53.6,72,29.85,10.0,NNW,12.7,24.2,0.00,Rain-Thunderstorm,Light Thunderstorms and Rain,340,2013-05-09 09:06:00
4:15 AM,62.6,51.8,68,29.86,10.0,Variable,3.5,19.6,0.00,Rain-Thunderstorm,Light Thunderstorms and Rain,0,2013-05-09 09:15:00
4:26 AM,60.8,53.6,77,29.86,10.0,WNW,9.2,-,0.00,Rain,Light Rain,290,2013-05-09 09:26:00
4:53 AM,59.0,55.0,87,29.83,10.0,WNW,9.2,-,0.00,,Overcast,300,2013-05-09 09:53:00
5:53 AM,57.0,55.9,96,29.84,10.0,WNW,5.8,-,N/A,,Overcast,290,2013-05-09 10:53:00
6:53 AM,55.9,55.0,97,29.88,10.0,WNW,5.8,-,N/A,,Mostly Cloudy,300,2013-05-09 11:53:00
7:53 AM,57.0,55.0,93,29.90,10.0,Calm,Calm,-,N/A,,Mostly Cloudy,0,2013-05-09 12:53:00
8:53 AM,63.0,55.0,75,29.91,10.0,NW,5.8,-,N/A,,Scattered Clouds,310,2013-05-09 13:53:00
9:53 AM,64.9,55.0,70,29.93,10.0,SW,5.8,-,N/A,,Mostly Cloudy,230,2013-05-09 14:53:00
10:53 AM,64.9,57.9,78,29.94,10.0,SSW,8.1,-,N/A,,Mostly Cloudy,210,2013-05-09 15:53:00
11:53 AM,71.6,57.2,60,29.96,10.0,West,12.7,19.6,N/A,,Mostly Cloudy,270,2013-05-09 16:53:00
12:53 PM,71.1,60.1,68,29.93,10.0,West,9.2,-,N/A,,Mostly Cloudy,280,2013-05-09 17:53:00
1:53 PM,72.0,57.9,61,29.91,10.0,NW,13.8,17.3,N/A,,Mostly Cloudy,310,2013-05-09 18:53:00
2:53 PM,71.1,57.9,63,29.93,10.0,NNW,11.5,-,N/A,,Mostly Cloudy,330,2013-05-09 19:53:00
3:53 PM,73.9,57.0,55,29.92,10.0,NNW,15.0,-,N/A,,Scattered Clouds,330,2013-05-09 20:53:00
4:53 PM,73.9,57.0,55,29.91,10.0,NW,12.7,17.3,N/A,,Scattered Clouds,320,2013-05-09 21:53:00
5:53 PM,73.0,57.0,57,29.92,10.0,NW,12.7,-,N/A,,Scattered Clouds,310,2013-05-09 22:53:00
6:53 PM,72.0,57.0,59,29.92,10.0,NW,11.5,-,N/A,,Scattered Clouds,320,2013-05-09 23:53:00
7:53 PM,69.1,53.1,57,29.91,10.0,NW,9.2,-,N/A,,Scattered Clouds,310,2013-05-10 00:53:00
8:53 PM,64.4,55.4,73,29.93,10.0,NNW,5.8,-,N/A,,Partly Cloudy,330,2013-05-10 01:53:00
9:53 PM,64.0,57.0,78,29.94,10.0,North,9.2,-,N/A,,Partly Cloudy,360,2013-05-10 02:53:00
10:53 PM,62.1,57.0,84,29.98,10.0,North,6.9,-,N/A,,Clear,350,2013-05-10 03:53:00
11:53 PM,60.8,57.2,88,30.01,10.0,NNW,9.2,-,N/A,,Clear,340,2013-05-10 04:53:00